User: anonymous   Login
Location: Vancouver
(49.2500°N, 123.1330°W)
Time: 08:23:57
(UTC-07:00)
Language:

Cosmos 676 Rocket - Orbit

View from above orbital plane
View from above orbital plane
View from above satellite
View from above satellite

Ground track
Ground track

The orbit data is extracted from the following two-line orbital elements,

1 07434U 74071B   15212.03400329  .00000157  00000-0  62293-4 0  9998
2 07434 074.0466 035.8150 0020008 117.3355 242.9838 14.36486328138030
Epoch (UTC): 31 July 2015 00:48:57
Eccentricity: 0.0020008
inclination: 74.0466°
perigee height: 756 km
apogee height: 784 km
right ascension of ascending node: 35.8150°
argument of perigee: 117.3355°
revolutions per day: 14.36486328
mean anomaly at epoch: 242.9838°
orbit number at epoch: 13803

The dashed part of the orbit path shows where the satellite is in the earth's shadow,  

DLR